Regional Weather Roundup
Issued by NWS

Home | Current Version | Previous Version | Graphics & Text | Print | Product List | Glossary On
Versions: 1 2 3 4 5 6 7 8 9 10 11 12 13 14 15 16 17 18 19 20 21 22 23 24 25 26 27
000
ASUS45 KSLC 250110
RWRUT

UTAH REGIONAL WEATHER ROUNDUP
NATIONAL WEATHER SERVICE SALT LAKE CITY UT
700 PM MDT WED AUG 24 2016

UTZ001>011-023>025-250200-

NORTHERN UTAH

CITY           SKY/WX    TMP DP  RH WIND       PRES   REMARKS
BRIGHAM CITY     N/A     79  12   8 S6        30.10S
HILL AFB       SUNNY     76  22  13 CALM      30.12F
LOGAN          SUNNY     77  27  15 NW7       30.09F
OGDEN          SUNNY     77  22  13 CALM      30.09F
PROVO AIRPORT  MOSUNNY   79  27  14 NW8       30.09F
SALT LAKE CITY MOSUNNY   81  19  10 N10       30.08F
VERNAL         CLOUDY    78  27  15 N5        30.05S
WENDOVER       SUNNY     82  21  10 SE7       30.07S
HEBER CITY     MOSUNNY   72  23  16 NW13      30.13S
WEST JORDAN    MOSUNNY   77  26  15 N9        30.12F

$$

UTZ012>022-026-027-250200-

SOUTHERN/CENTRAL UTAH

CITY           SKY/WX    TMP DP  RH WIND       PRES   REMARKS
BLANDING       CLOUDY    70  39  32 N5        30.26R
BRYCE CANYON   MOSUNNY   68  35  29 NW6       30.28F
CEDAR CITY     MOSUNNY   82  37  20 SW12G17   30.11S
DELTA          SUNNY     81  19  10 N6        30.07F
MILFORD        MOSUNNY   84  36  18 S5        30.05F
MOAB/CYNLANDS  MOSUNNY   83  42  23 SW13      30.02S
PRICE          SUNNY     80  22  11 NW16G23   30.11S
ST GEORGE      PTCLDY    93  43  17 W10       29.94F

$$

REGIONAL REPORTS     COLORADO/ARIZONA

CITY           SKY/WX    TMP DP  RH WIND       PRES   REMARKS
CRAIG, CO      CLOUDY    73  25  16 NW8       30.13S
GRAND JUNCTION PTCLDY    80  34  19 NW12G17   30.07S
RIFLE          CLOUDY    75  38  26 SE3       30.12F
MONTROSE       CLEAR     74  36  25 CALM      30.15S
CORTEZ         CLOUDY    69  47  45 W6        30.18F
PAGE, AZ       PTSUNNY   84  38  19 W3        30.05R
GRAND CANYON   LGT RAIN  73  37  27 NW13G20   30.27R
KINGMAN        SUNNY     92  43  18 W8        30.01F
FLAGSTAFF      PTSUNNY   63  45  51 S8        30.29S

$$

REGIONAL REPORTS    NEVADA/IDAHO/WYOMING

CITY           SKY/WX    TMP DP  RH WIND       PRES   REMARKS
LAS VEGAS, NV  MOSUNNY  101  38  11 N6        29.82F HX  95
ELY            SUNNY     80  16   9 N9        30.15F
ELKO           SUNNY     81   7   6 SW14      30.10F
POCATELLO, ID  SUNNY     76  28  17 NW6       30.13F
EVANSTON, WY   CLOUDY    67  11  11 W12G17    30.24S
ROCK SPRINGS   NOT AVBL

$$




USA.gov is the U.S. government's official web portal to all federal, state and local government web resources and services.